TimeEDT,TemperatureF,Dew PointF,Humidity,Sea Level PressureIn,VisibilityMPH,Wind Direction,Wind SpeedMPH,Gust SpeedMPH,PrecipitationIn,Events,Conditions,WindDirDegrees,DateUTC
12:15 AM,51.8,41.0,67,30.00,10.0,SW,5.8,-,N/A,,Clear,220,2014-03-09 05:15:00
12:35 AM,50.0,41.0,71,30.00,10.0,SW,5.8,-,N/A,,Clear,230,2014-03-09 05:35:00
12:55 AM,50.0,41.0,71,30.00,10.0,SW,5.8,-,N/A,,Clear,230,2014-03-09 05:55:00
1:15 AM,50.0,42.8,76,30.00,10.0,SW,5.8,-,N/A,,Clear,230,2014-03-09 06:15:00
1:35 AM,50.0,42.8,76,30.00,10.0,SW,5.8,-,N/A,,Clear,230,2014-03-09 06:35:00
1:55 AM,50.0,42.8,76,29.99,10.0,SW,5.8,-,N/A,,Clear,230,2014-03-09 06:55:00
3:15 AM,50.0,42.8,76,29.99,10.0,SW,6.9,-,N/A,,Clear,230,2014-03-09 07:15:00
3:35 AM,50.0,42.8,76,29.98,10.0,SW,5.8,-,N/A,,Clear,230,2014-03-09 07:35:00
3:55 AM,48.2,42.8,82,29.98,10.0,SW,4.6,-,N/A,,Clear,230,2014-03-09 07:55:00
4:15 AM,48.2,42.8,82,29.98,10.0,WSW,3.5,-,N/A,,Clear,250,2014-03-09 08:15:00
4:35 AM,48.2,42.8,82,29.98,10.0,WSW,4.6,-,N/A,,Clear,250,2014-03-09 08:35:00
4:55 AM,48.2,42.8,82,29.99,10.0,WSW,5.8,-,N/A,,Clear,240,2014-03-09 08:55:00
5:15 AM,48.2,42.8,82,29.98,10.0,WSW,4.6,-,N/A,,Clear,250,2014-03-09 09:15:00
5:35 AM,46.4,42.8,87,29.99,10.0,Calm,Calm,-,N/A,,Clear,0,2014-03-09 09:35:00
5:55 AM,50.0,42.8,76,29.99,10.0,Calm,Calm,-,N/A,,Clear,0,2014-03-09 09:55:00
6:15 AM,46.4,42.8,87,30.00,10.0,Calm,Calm,-,N/A,,Clear,0,2014-03-09 10:15:00
6:35 AM,48.2,42.8,82,30.01,10.0,Calm,Calm,-,N/A,,Clear,0,2014-03-09 10:35:00
6:55 AM,44.6,41.0,87,30.01,10.0,Calm,Calm,-,N/A,,Clear,0,2014-03-09 10:55:00
7:15 AM,44.6,41.0,87,30.02,10.0,WSW,3.5,-,N/A,,Clear,250,2014-03-09 11:15:00
7:35 AM,44.6,41.0,87,30.03,10.0,Calm,Calm,-,N/A,,Clear,0,2014-03-09 11:35:00
7:55 AM,44.6,42.8,93,30.03,10.0,Calm,Calm,-,N/A,,Scattered Clouds,0,2014-03-09 11:55:00
8:15 AM,48.2,42.8,82,30.04,10.0,Calm,Calm,-,N/A,,Scattered Clouds,0,2014-03-09 12:15:00
8:35 AM,50.0,44.6,82,30.04,10.0,Calm,Calm,-,N/A,,Mostly Cloudy,0,2014-03-09 12:35:00
8:55 AM,51.8,42.8,71,30.05,10.0,Calm,Calm,-,N/A,,Mostly Cloudy,0,2014-03-09 12:55:00
9:15 AM,51.8,42.8,71,30.06,10.0,NW,3.5,-,N/A,,Scattered Clouds,310,2014-03-09 13:15:00
9:35 AM,53.6,42.8,67,30.06,10.0,WNW,5.8,-,N/A,,Mostly Cloudy,290,2014-03-09 13:35:00
9:55 AM,55.4,41.0,58,30.06,10.0,NW,5.8,-,N/A,,Overcast,310,2014-03-09 13:55:00
10:15 AM,59.0,41.0,51,30.06,10.0,NW,6.9,-,N/A,,Mostly Cloudy,310,2014-03-09 14:15:00
10:35 AM,59.0,39.2,48,30.07,10.0,NW,8.1,20.7,N/A,,Scattered Clouds,320,2014-03-09 14:35:00
10:55 AM,59.0,39.2,48,30.07,10.0,NW,10.4,-,N/A,,Scattered Clouds,320,2014-03-09 14:55:00
11:15 AM,62.6,41.0,45,30.07,10.0,NNW,8.1,-,N/A,,Clear,340,2014-03-09 15:15:00
11:35 AM,62.6,41.0,45,30.06,10.0,North,12.7,18.4,N/A,,Clear,360,2014-03-09 15:35:00
11:55 AM,64.4,39.2,40,30.06,10.0,North,11.5,18.4,N/A,,Clear,350,2014-03-09 15:55:00
12:15 PM,64.4,37.4,37,30.06,10.0,NNW,9.2,16.1,N/A,,Clear,330,2014-03-09 16:15:00
12:35 PM,64.4,37.4,37,30.07,10.0,NNW,10.4,-,N/A,,Clear,340,2014-03-09 16:35:00
12:55 PM,64.4,37.4,37,30.06,10.0,NNW,8.1,-,N/A,,Clear,340,2014-03-09 16:55:00
1:15 PM,64.4,37.4,37,30.06,10.0,NNW,8.1,16.1,N/A,,Clear,340,2014-03-09 17:15:00
1:35 PM,64.4,37.4,37,30.06,10.0,North,6.9,-,N/A,,Clear,360,2014-03-09 17:35:00
1:55 PM,64.4,37.4,37,30.05,10.0,NNW,6.9,-,N/A,,Clear,330,2014-03-09 17:55:00
2:15 PM,64.4,37.4,37,30.04,10.0,North,8.1,-,N/A,,Clear,360,2014-03-09 18:15:00
2:35 PM,66.2,37.4,35,30.04,10.0,NNW,4.6,16.1,N/A,,Clear,340,2014-03-09 18:35:00
2:55 PM,66.2,35.6,32,30.03,10.0,NW,6.9,-,N/A,,Clear,320,2014-03-09 18:55:00
3:15 PM,64.4,37.4,37,30.03,10.0,NW,4.6,-,N/A,,Clear,310,2014-03-09 19:15:00
3:35 PM,66.2,35.6,32,30.02,10.0,Calm,Calm,-,N/A,,Clear,0,2014-03-09 19:35:00
3:55 PM,66.2,35.6,32,30.02,10.0,NW,3.5,-,N/A,,Clear,320,2014-03-09 19:55:00
4:15 PM,68.0,35.6,30,30.02,10.0,NNW,8.1,-,N/A,,Clear,330,2014-03-09 20:15:00
4:35 PM,68.0,35.6,30,30.02,10.0,NW,3.5,-,N/A,,Clear,310,2014-03-09 20:35:00
4:55 PM,68.0,35.6,30,30.02,10.0,West,8.1,-,N/A,,Clear,280,2014-03-09 20:55:00
5:10 PM,68.0,35.6,30,30.01,10.0,West,3.5,-,N/A,,Clear,270,2014-03-09 21:10:00
5:35 PM,68.0,33.8,28,30.01,10.0,West,5.8,-,N/A,,Clear,280,2014-03-09 21:35:00
5:55 PM,66.2,33.8,30,30.01,10.0,NW,6.9,-,N/A,,Clear,320,2014-03-09 21:55:00
6:15 PM,64.4,33.8,32,30.02,10.0,West,8.1,-,N/A,,Clear,280,2014-03-09 22:15:00
6:35 PM,64.4,32.0,30,30.02,10.0,WNW,4.6,-,N/A,,Clear,290,2014-03-09 22:35:00
6:55 PM,62.6,32.0,32,30.03,10.0,Calm,Calm,-,N/A,,Clear,0,2014-03-09 22:55:00
7:15 PM,62.6,32.0,32,30.03,10.0,Calm,Calm,-,N/A,,Clear,0,2014-03-09 23:15:00
7:35 PM,60.8,33.8,36,30.04,10.0,Calm,Calm,-,N/A,,Clear,0,2014-03-09 23:35:00
7:55 PM,51.8,35.6,54,30.04,10.0,Calm,Calm,-,N/A,,Clear,0,2014-03-09 23:55:00
8:15 PM,51.8,35.6,54,30.05,10.0,Calm,Calm,-,N/A,,Clear,0,2014-03-10 00:15:00
8:35 PM,51.8,35.6,54,30.05,10.0,Calm,Calm,-,N/A,,Clear,0,2014-03-10 00:35:00
8:55 PM,48.2,35.6,62,30.05,10.0,Calm,Calm,-,N/A,,Clear,0,2014-03-10 00:55:00
9:15 PM,48.2,35.6,62,30.06,10.0,Calm,Calm,-,N/A,,Clear,0,2014-03-10 01:15:00
9:35 PM,44.6,37.4,76,30.06,10.0,Calm,Calm,-,N/A,,Clear,0,2014-03-10 01:35:00
9:50 PM,50.0,39.2,66,30.07,10.0,SE,9.2,-,N/A,,Clear,130,2014-03-10 01:50:00
10:15 PM,46.4,39.2,76,30.07,10.0,SSE,6.9,-,N/A,,Clear,150,2014-03-10 02:15:00
10:35 PM,46.4,37.4,71,30.07,10.0,SSE,9.2,-,N/A,,Clear,150,2014-03-10 02:35:00
10:55 PM,44.6,37.4,76,30.07,10.0,SSE,6.9,-,N/A,,Clear,150,2014-03-10 02:55:00
11:15 PM,44.6,37.4,76,30.06,10.0,SSE,6.9,-,N/A,,Clear,150,2014-03-10 03:15:00
11:35 PM,44.6,37.4,76,30.06,10.0,SE,6.9,-,N/A,,Clear,140,2014-03-10 03:35:00
11:55 PM,44.6,37.4,76,30.06,10.0,SSE,5.8,-,N/A,,Clear,150,2014-03-10 03:55:00
12:15 AM,44.6,37.4,76,30.06,10.0,SSE,6.9,-,N/A,,Clear,150,2014-03-10 04:15:00
12:35 AM,42.8,37.4,81,30.06,10.0,SE,3.5,-,N/A,,Clear,140,2014-03-10 04:35:00
12:55 AM,42.8,37.4,81,30.05,7.0,SSE,3.5,-,N/A,,Clear,150,2014-03-10 04:55:00